Time,TemperatureF,DewpointF,PressureIn,WindDirection,WindDirectionDegrees,WindSpeedMPH,WindSpeedGustMPH,Humidity,HourlyPrecipIn,Conditions,Clouds,dailyrainin,SoftwareType,DateUTC
2013-07-25 10:32:00,66.7,61.4,30.03,WNW,293,2.0,4.0,83,0.00,,,0.00,Wunderground v.1.15,2013-07-25 14:32:00,
2013-07-25 10:33:00,66.7,61.4,30.03,NW,321,1.0,4.0,83,0.00,,,0.00,Wunderground v.1.15,2013-07-25 14:33:00,
2013-07-25 10:37:00,67.1,61.8,30.03,North,11,2.0,5.0,83,0.00,,,0.00,Wunderground v.1.15,2013-07-25 14:37:00,
2013-07-25 10:38:00,67.2,61.9,30.03,NNW,331,3.0,5.0,83,0.00,,,0.00,Wunderground v.1.15,2013-07-25 14:38:00,
2013-07-25 10:42:00,67.3,61.6,30.03,ENE,71,2.0,3.0,82,0.00,,,0.00,Wunderground v.1.15,2013-07-25 14:42:00,
2013-07-25 10:43:00,67.3,61.6,30.03,North,349,2.0,3.0,82,0.00,,,0.00,Wunderground v.1.15,2013-07-25 14:43:00,
2013-07-25 10:48:00,67.1,61.4,30.03,ENE,65,1.0,5.0,82,0.00,,,0.00,Wunderground v.1.15,2013-07-25 14:48:00,
2013-07-25 10:53:00,66.8,61.1,30.03,NNE,21,1.0,6.0,82,0.00,,,0.00,Wunderground v.1.15,2013-07-25 14:53:00,
2013-07-25 10:54:00,66.7,61.0,30.03,NNW,341,5.0,10.0,82,0.00,,,0.00,Wunderground v.1.15,2013-07-25 14:54:00,
2013-07-25 10:58:00,66.6,61.6,30.03,North,11,1.0,10.0,84,0.00,,,0.00,Wunderground v.1.15,2013-07-25 14:58:00,
2013-07-25 10:59:00,66.6,61.6,30.03,WNW,297,0.0,10.0,84,0.00,,,0.00,Wunderground v.1.15,2013-07-25 14:59:00,
2013-07-25 11:03:00,66.6,61.6,30.04,NE,34,2.0,6.0,84,0.00,,,0.00,Wunderground v.1.15,2013-07-25 15:03:00,
2013-07-25 11:04:00,66.6,61.6,30.04,NE,41,2.0,6.0,84,0.00,,,0.00,Wunderground v.1.15,2013-07-25 15:04:00,
2013-07-25 11:09:00,66.4,61.4,30.03,ENE,57,0.0,6.0,84,0.00,,,0.00,Wunderground v.1.15,2013-07-25 15:09:00,
2013-07-25 11:10:00,66.4,61.4,30.04,ENE,60,0.0,1.0,84,0.00,,,0.00,Wunderground v.1.15,2013-07-25 15:10:00,
2013-07-25 11:14:00,66.4,61.4,30.04,ENE,59,1.0,5.0,84,0.00,,,0.00,Wunderground v.1.15,2013-07-25 15:14:00,
2013-07-25 11:15:00,66.4,61.4,30.03,West,262,3.0,5.0,84,0.00,,,0.00,Wunderground v.1.15,2013-07-25 15:15:00,
2013-07-25 11:19:00,66.4,61.8,30.03,NE,37,3.0,5.0,85,0.00,,,0.00,Wunderground v.1.15,2013-07-25 15:19:00,
2013-07-25 11:20:00,66.4,61.8,30.03,ENE,72,1.0,3.0,85,0.00,,,0.00,Wunderground v.1.15,2013-07-25 15:20:00,
2013-07-25 11:24:00,66.4,61.8,30.03,NNW,334,2.0,6.0,85,0.00,,,0.00,Wunderground v.1.15,2013-07-25 15:24:00,
2013-07-25 11:25:00,66.4,61.8,30.03,NNE,15,1.0,6.0,85,0.00,,,0.00,Wunderground v.1.15,2013-07-25 15:25:00,
2013-07-25 11:29:00,66.3,61.7,30.03,North,7,2.0,6.0,85,0.00,,,0.00,Wunderground v.1.15,2013-07-25 15:29:00,
2013-07-25 11:30:00,66.3,61.7,30.03,NE,51,1.0,2.0,85,0.00,,,0.00,Wunderground v.1.15,2013-07-25 15:30:00,
2013-07-25 11:34:00,66.3,61.7,30.03,NNE,32,0.0,4.0,85,0.00,,,0.00,Wunderground v.1.15,2013-07-25 15:34:00,
2013-07-25 11:35:00,66.3,61.7,30.03,SSW,204,2.0,4.0,85,0.00,,,0.00,Wunderground v.1.15,2013-07-25 15:35:00,
2013-07-25 11:37:00,66.3,61.7,30.03,NNE,21,1.0,4.0,85,0.00,,,0.00,Wunderground v.1.15,2013-07-25 15:37:00,
2013-07-25 11:39:00,66.4,61.8,30.03,NE,41,1.0,1.0,85,0.00,,,0.00,Wunderground v.1.15,2013-07-25 15:39:00,
2013-07-25 11:40:00,66.3,61.7,30.03,East,84,1.0,1.0,85,0.00,,,0.00,Wunderground v.1.15,2013-07-25 15:40:00,
2013-07-25 11:41:00,66.3,61.7,30.03,NNE,16,3.0,4.0,85,0.00,,,0.00,Wunderground v.1.15,2013-07-25 15:41:00,
2013-07-25 11:42:00,66.2,61.6,30.03,East,82,0.0,4.0,85,0.00,,,0.00,Wunderground v.1.15,2013-07-25 15:42:00,
2013-07-25 11:44:00,66.2,61.6,30.03,North,350,0.0,4.0,85,0.00,,,0.00,Wunderground v.1.15,2013-07-25 15:44:00,
2013-07-25 11:45:00,66.3,61.7,30.03,ENE,60,0.0,4.0,85,0.00,,,0.00,Wunderground v.1.15,2013-07-25 15:45:00,
2013-07-25 11:46:00,66.3,62.0,30.03,NE,43,0.0,4.0,86,0.00,,,0.00,Wunderground v.1.15,2013-07-25 15:46:00,
2013-07-25 11:48:00,66.4,62.1,30.04,ENE,63,4.0,4.0,86,0.00,,,0.00,Wunderground v.1.15,2013-07-25 15:48:00,
2013-07-25 11:50:00,66.4,62.1,30.04,North,6,2.0,2.0,86,0.00,,,0.00,Wunderground v.1.15,2013-07-25 15:50:00,
2013-07-25 11:51:00,66.4,61.8,30.04,NW,311,2.0,3.0,85,0.00,,,0.00,Wunderground v.1.15,2013-07-25 15:51:00,
2013-07-25 11:52:00,66.3,62.0,30.04,North,11,2.0,3.0,86,0.00,,,0.00,Wunderground v.1.15,2013-07-25 15:52:00,
2013-07-25 11:53:00,66.3,62.0,30.04,NE,50,1.0,3.0,86,0.00,,,0.00,Wunderground v.1.15,2013-07-25 15:53:00,
2013-07-25 11:55:00,66.2,61.6,30.03,ENE,68,0.0,6.0,85,0.00,,,0.00,Wunderground v.1.15,2013-07-25 15:55:00,
2013-07-25 11:56:00,66.2,61.9,30.03,North,7,3.0,6.0,86,0.00,,,0.00,Wunderground v.1.15,2013-07-25 15:56:00,
2013-07-25 11:57:00,66.2,61.9,30.03,ENE,76,2.0,6.0,86,0.00,,,0.00,Wunderground v.1.15,2013-07-25 15:57:00,
2013-07-25 11:59:00,66.1,61.8,30.03,NNW,331,2.0,6.0,86,0.00,,,0.00,Wunderground v.1.15,2013-07-25 15:59:00,
2013-07-25 12:00:00,66.0,61.7,30.04,ENE,71,1.0,3.0,86,0.00,,,0.00,Wunderground v.1.15,2013-07-25 16:00:00,
2013-07-25 12:01:00,66.0,61.7,30.04,NE,41,0.0,3.0,86,0.00,,,0.00,Wunderground v.1.15,2013-07-25 16:01:00,
2013-07-25 12:02:00,66.0,61.7,30.04,NW,315,1.0,3.0,86,0.00,,,0.00,Wunderground v.1.15,2013-07-25 16:02:00,
2013-07-25 12:04:00,66.0,61.7,30.04,NNW,328,2.0,3.0,86,0.00,,,0.00,Wunderground v.1.15,2013-07-25 16:04:00,
2013-07-25 12:06:00,66.0,61.7,30.04,NW,316,1.0,3.0,86,0.00,,,0.00,Wunderground v.1.15,2013-07-25 16:06:00,
2013-07-25 12:07:00,66.1,61.8,30.04,North,6,3.0,3.0,86,0.00,,,0.00,Wunderground v.1.15,2013-07-25 16:07:00,
2013-07-25 12:10:00,66.1,61.8,30.04,NNE,29,0.0,1.0,86,0.00,,,0.00,Wunderground v.1.15,2013-07-25 16:10:00,
2013-07-25 12:11:00,66.1,61.8,30.04,NNE,29,2.0,4.0,86,0.00,,,0.00,Wunderground v.1.15,2013-07-25 16:11:00,
2013-07-25 12:13:00,66.1,61.8,30.03,North,11,1.0,4.0,86,0.00,,,0.00,Wunderground v.1.15,2013-07-25 16:13:00,
2013-07-25 12:15:00,66.1,61.8,30.03,North,353,2.0,5.0,86,0.00,,,0.00,Wunderground v.1.15,2013-07-25 16:15:00,
2013-07-25 12:16:00,66.1,61.8,30.03,NNW,340,4.0,5.0,86,0.00,,,0.00,Wunderground v.1.15,2013-07-25 16:16:00,
2013-07-25 12:17:00,66.1,61.8,30.03,North,6,2.0,5.0,86,0.00,,,0.00,Wunderground v.1.15,2013-07-25 16:17:00,
2013-07-25 12:18:00,66.1,61.8,30.04,North,350,2.0,5.0,86,0.00,,,0.00,Wunderground v.1.15,2013-07-25 16:18:00,
2013-07-25 12:20:00,66.1,61.8,30.04,NE,49,1.0,3.0,86,0.00,,,0.00,Wunderground v.1.15,2013-07-25 16:20:00,
2013-07-25 12:21:00,66.1,61.8,30.04,NNE,23,0.0,3.0,86,0.00,,,0.00,Wunderground v.1.15,2013-07-25 16:21:00,
2013-07-25 12:22:00,66.1,61.8,30.04,NE,34,0.0,3.0,86,0.00,,,0.00,Wunderground v.1.15,2013-07-25 16:22:00,
2013-07-25 12:23:00,66.1,61.8,30.04,NNW,334,3.0,3.0,86,0.00,,,0.00,Wunderground v.1.15,2013-07-25 16:23:00,
2013-07-25 12:24:00,66.1,61.8,30.04,North,351,0.0,3.0,86,0.00,,,0.00,Wunderground v.1.15,2013-07-25 16:24:00,
2013-07-25 12:25:00,66.2,61.9,30.04,NNE,19,1.0,3.0,86,0.00,,,0.00,Wunderground v.1.15,2013-07-25 16:25:00,
2013-07-25 12:27:00,66.2,61.9,30.04,East,86,1.0,3.0,86,0.00,,,0.00,Wunderground v.1.15,2013-07-25 16:27:00,
2013-07-25 12:28:00,66.3,62.3,30.04,NNE,23,1.0,3.0,87,0.00,,,0.00,Wunderground v.1.15,2013-07-25 16:28:00,
2013-07-25 12:29:00,66.3,62.3,30.04,NNW,337,1.0,3.0,87,0.00,,,0.00,Wunderground v.1.15,2013-07-25 16:29:00,
2013-07-25 12:31:00,66.4,62.4,30.04,NNE,29,2.0,2.0,87,0.00,,,0.00,Wunderground v.1.15,2013-07-25 16:31:00,
2013-07-25 12:32:00,66.4,62.4,30.03,NNW,342,1.0,3.0,87,0.00,,,0.00,Wunderground v.1.15,2013-07-25 16:32:00,
2013-07-25 12:33:00,66.5,62.2,30.04,ESE,113,2.0,3.0,86,0.00,,,0.00,Wunderground v.1.15,2013-07-25 16:33:00,
2013-07-25 12:34:00,66.5,62.2,30.04,NNW,347,3.0,3.0,86,0.00,,,0.00,Wunderground v.1.15,2013-07-25 16:34:00,
2013-07-25 12:36:00,66.4,62.1,30.04,NNE,12,1.0,4.0,86,0.00,,,0.00,Wunderground v.1.15,2013-07-25 16:36:00,
2013-07-25 12:37:00,66.4,62.1,30.04,WNW,287,0.0,4.0,86,0.00,,,0.00,Wunderground v.1.15,2013-07-25 16:37:00,
2013-07-25 12:38:00,66.4,62.1,30.04,East,84,1.0,4.0,86,0.00,,,0.00,Wunderground v.1.15,2013-07-25 16:38:00,
2013-07-25 12:39:00,66.4,62.1,30.04,NE,56,1.0,4.0,86,0.00,,,0.00,Wunderground v.1.15,2013-07-25 16:39:00,
2013-07-25 12:41:00,66.4,62.1,30.04,East,84,2.0,2.0,86,0.00,,,0.00,Wunderground v.1.15,2013-07-25 16:41:00,
2013-07-25 12:42:00,66.4,62.1,30.04,NW,317,0.0,2.0,86,0.00,,,0.00,Wunderground v.1.15,2013-07-25 16:42:00,
2013-07-25 12:43:00,66.4,62.1,30.04,NW,318,0.0,2.0,86,0.00,,,0.00,Wunderground v.1.15,2013-07-25 16:43:00,
2013-07-25 12:44:00,66.4,62.4,30.04,ENE,66,1.0,3.0,87,0.00,,,0.00,Wunderground v.1.15,2013-07-25 16:44:00,
2013-07-25 12:45:00,66.4,62.4,30.04,NNE,19,1.0,3.0,87,0.00,,,0.00,Wunderground v.1.15,2013-07-25 16:45:00,
2013-07-25 12:46:00,66.4,62.1,30.04,North,349,2.0,3.0,86,0.00,,,0.00,Wunderground v.1.15,2013-07-25 16:46:00,
2013-07-25 12:47:00,66.3,62.0,30.04,NNW,341,1.0,3.0,86,0.00,,,0.00,Wunderground v.1.15,2013-07-25 16:47:00,
2013-07-25 12:48:00,66.3,62.0,30.04,NNE,25,0.0,3.0,86,0.00,,,0.00,Wunderground v.1.15,2013-07-25 16:48:00,
2013-07-25 12:49:00,66.3,62.0,30.04,NE,47,1.0,3.0,86,0.00,,,0.00,Wunderground v.1.15,2013-07-25 16:49:00,
2013-07-25 12:50:00,66.3,62.0,30.04,NNE,17,1.0,1.0,86,0.00,,,0.00,Wunderground v.1.15,2013-07-25 16:50:00,
2013-07-25 12:51:00,66.2,62.2,30.04,NNW,341,1.0,2.0,87,0.00,,,0.00,Wunderground v.1.15,2013-07-25 16:51:00,
2013-07-25 12:52:00,66.2,62.2,30.04,East,87,0.0,2.0,87,0.00,,,0.00,Wunderground v.1.15,2013-07-25 16:52:00,
2013-07-25 12:53:00,66.2,62.2,30.04,West,261,2.0,2.0,87,0.00,,,0.00,Wunderground v.1.15,2013-07-25 16:53:00,
2013-07-25 12:54:00,66.1,62.1,30.05,NE,39,2.0,3.0,87,0.00,,,0.00,Wunderground v.1.15,2013-07-25 16:54:00,
2013-07-25 12:55:00,66.1,62.1,30.05,NE,40,2.0,3.0,87,0.00,,,0.00,Wunderground v.1.15,2013-07-25 16:55:00,
2013-07-25 12:56:00,66.1,62.1,30.04,North,350,2.0,4.0,87,0.00,,,0.00,Wunderground v.1.15,2013-07-25 16:56:00,
2013-07-25 12:57:00,66.0,62.0,30.04,NE,43,3.0,4.0,87,0.00,,,0.00,Wunderground v.1.15,2013-07-25 16:57:00,
2013-07-25 12:58:00,66.0,62.0,30.04,NNE,20,2.0,4.0,87,0.00,,,0.00,Wunderground v.1.15,2013-07-25 16:58:00,
2013-07-25 13:00:00,65.9,61.9,30.04,NNE,19,1.0,3.0,87,0.00,,,0.00,Wunderground v.1.15,2013-07-25 17:00:00,
2013-07-25 13:01:00,65.8,61.8,30.04,NNE,15,1.0,4.0,87,0.00,,,0.00,Wunderground v.1.15,2013-07-25 17:01:00,
2013-07-25 13:02:00,65.8,61.8,30.04,North,356,2.0,4.0,87,0.00,,,0.00,Wunderground v.1.15,2013-07-25 17:02:00,
2013-07-25 13:03:00,65.7,61.7,30.04,NNE,30,2.0,4.0,87,0.00,,,0.00,Wunderground v.1.15,2013-07-25 17:03:00,
2013-07-25 13:05:00,65.6,61.6,30.04,North,356,1.0,4.0,87,0.00,,,0.00,Wunderground v.1.15,2013-07-25 17:05:00,
2013-07-25 13:07:00,65.6,61.9,30.04,NW,326,2.0,4.0,88,0.00,,,0.00,Wunderground v.1.15,2013-07-25 17:07:00,
2013-07-25 13:09:00,65.6,61.9,30.04,North,351,0.0,4.0,88,0.00,,,0.00,Wunderground v.1.15,2013-07-25 17:09:00,
2013-07-25 13:10:00,65.6,61.9,30.04,NW,318,1.0,1.0,88,0.00,,,0.00,Wunderground v.1.15,2013-07-25 17:10:00,
2013-07-25 13:12:00,65.6,61.9,30.05,NW,307,1.0,3.0,88,0.00,,,0.00,Wunderground v.1.15,2013-07-25 17:12:00,
2013-07-25 13:13:00,65.7,62.0,30.04,NW,326,2.0,4.0,88,0.00,,,0.00,Wunderground v.1.15,2013-07-25 17:13:00,
2013-07-25 13:14:00,65.6,61.9,30.05,NE,54,2.0,7.0,88,0.00,,,0.00,Wunderground v.1.15,2013-07-25 17:14:00,
2013-07-25 13:16:00,65.6,61.9,30.04,SE,141,2.0,7.0,88,0.00,,,0.00,Wunderground v.1.15,2013-07-25 17:16:00,
2013-07-25 13:17:00,65.5,62.2,30.04,North,6,3.0,7.0,89,0.00,,,0.00,Wunderground v.1.15,2013-07-25 17:17:00,
2013-07-25 13:18:00,65.5,62.2,30.04,North,9,3.0,7.0,89,0.00,,,0.00,Wunderground v.1.15,2013-07-25 17:18:00,
2013-07-25 13:19:00,65.5,62.2,30.04,NNW,345,3.0,7.0,89,0.00,,,0.00,Wunderground v.1.15,2013-07-25 17:19:00,
2013-07-25 13:21:00,65.4,62.1,30.04,NNE,21,3.0,5.0,89,0.00,,,0.00,Wunderground v.1.15,2013-07-25 17:21:00,
2013-07-25 13:22:00,65.2,61.9,30.04,NW,321,0.0,5.0,89,0.00,,,0.00,Wunderground v.1.15,2013-07-25 17:22:00,
2013-07-25 13:23:00,65.2,61.9,30.04,NNW,342,1.0,5.0,89,0.00,,,0.00,Wunderground v.1.15,2013-07-25 17:23:00,
2013-07-25 13:24:00,65.1,62.1,30.04,NNE,26,0.0,5.0,90,0.00,,,0.00,Wunderground v.1.15,2013-07-25 17:24:00,
2013-07-25 13:26:00,65.1,62.1,30.04,NE,44,0.0,5.0,90,0.00,,,0.00,Wunderground v.1.15,2013-07-25 17:26:00,
2013-07-25 13:27:00,65.0,62.0,30.04,NNE,16,1.0,5.0,90,0.00,,,0.00,Wunderground v.1.15,2013-07-25 17:27:00,
2013-07-25 13:28:00,65.0,62.3,30.04,NNW,336,2.0,5.0,91,0.00,,,0.01,Wunderground v.1.15,2013-07-25 17:28:00,
2013-07-25 13:29:00,65.0,62.3,30.04,East,91,2.0,5.0,91,0.00,,,0.01,Wunderground v.1.15,2013-07-25 17:29:00,
2013-07-25 13:31:00,65.0,62.3,30.04,North,355,0.0,2.0,91,0.00,,,0.01,Wunderground v.1.15,2013-07-25 17:31:00,
2013-07-25 13:32:00,65.0,62.3,30.04,ENE,66,0.0,2.0,91,0.00,,,0.01,Wunderground v.1.15,2013-07-25 17:32:00,
2013-07-25 13:33:00,64.9,62.2,30.04,NE,38,0.0,2.0,91,0.00,,,0.01,Wunderground v.1.15,2013-07-25 17:33:00,
2013-07-25 13:35:00,64.9,62.5,30.04,North,351,0.0,2.0,92,0.00,,,0.01,Wunderground v.1.15,2013-07-25 17:35:00,
2013-07-25 13:36:00,64.9,62.5,30.03,NNW,337,3.0,5.0,92,0.08,,,0.02,Wunderground v.1.15,2013-07-25 17:36:00,
2013-07-25 13:37:00,64.8,62.4,30.04,North,11,1.0,5.0,92,0.08,,,0.02,Wunderground v.1.15,2013-07-25 17:37:00,
2013-07-25 13:38:00,64.7,62.3,30.04,NE,37,2.0,5.0,92,0.08,,,0.02,Wunderground v.1.15,2013-07-25 17:38:00,
2013-07-25 13:39:00,64.7,62.3,30.04,North,8,0.0,5.0,92,0.08,,,0.02,Wunderground v.1.15,2013-07-25 17:39:00,
2013-07-25 13:40:00,64.7,62.3,30.04,NNE,27,0.0,1.0,92,0.08,,,0.02,Wunderground v.1.15,2013-07-25 17:40:00,
2013-07-25 13:41:00,64.7,62.3,30.04,NNE,20,2.0,3.0,92,0.08,,,0.02,Wunderground v.1.15,2013-07-25 17:41:00,
2013-07-25 13:42:00,64.7,62.6,30.04,East,86,1.0,3.0,93,0.08,,,0.02,Wunderground v.1.15,2013-07-25 17:42:00,
2013-07-25 13:44:00,64.7,62.6,30.04,NE,46,1.0,4.0,93,0.07,,,0.02,Wunderground v.1.15,2013-07-25 17:44:00,
2013-07-25 13:45:00,64.7,62.6,30.04,North,8,2.0,4.0,93,0.06,,,0.02,Wunderground v.1.15,2013-07-25 17:45:00,
2013-07-25 13:46:00,64.7,62.6,30.04,North,356,4.0,4.0,93,0.06,,,0.02,Wunderground v.1.15,2013-07-25 17:46:00,
2013-07-25 13:47:00,64.6,62.5,30.04,NW,319,2.0,4.0,93,0.05,,,0.02,Wunderground v.1.15,2013-07-25 17:47:00,
2013-07-25 13:49:00,64.6,62.5,30.04,NE,39,2.0,4.0,93,0.04,,,0.02,Wunderground v.1.15,2013-07-25 17:49:00,
2013-07-25 13:50:00,64.6,62.5,30.04,North,351,1.0,2.0,93,0.04,,,0.02,Wunderground v.1.15,2013-07-25 17:50:00,
2013-07-25 13:51:00,64.6,62.5,30.04,ENE,60,3.0,3.0,93,0.04,,,0.02,Wunderground v.1.15,2013-07-25 17:51:00,
2013-07-25 13:53:00,64.5,62.4,30.04,NNE,27,2.0,4.0,93,0.00,,,0.02,Wunderground v.1.15,2013-07-25 17:53:00,
2013-07-25 13:54:00,64.5,62.4,30.04,North,351,1.0,5.0,93,0.00,,,0.02,Wunderground v.1.15,2013-07-25 17:54:00,
2013-07-25 13:55:00,64.5,62.4,30.04,North,354,2.0,5.0,93,0.00,,,0.02,Wunderground v.1.15,2013-07-25 17:55:00,
2013-07-25 13:56:00,64.4,62.3,30.04,NNW,333,0.0,5.0,93,0.00,,,0.02,Wunderground v.1.15,2013-07-25 17:56:00,
2013-07-25 13:58:00,64.4,62.3,30.04,North,11,1.0,7.0,93,0.00,,,0.02,Wunderground v.1.15,2013-07-25 17:58:00,
2013-07-25 13:59:00,64.4,62.6,30.04,North,358,0.0,7.0,94,0.00,,,0.02,Wunderground v.1.15,2013-07-25 17:59:00,
2013-07-25 14:00:00,64.5,62.7,30.04,North,358,0.0,2.0,94,0.00,,,0.02,Wunderground v.1.15,2013-07-25 18:00:00,
2013-07-25 14:02:00,64.5,62.7,30.04,NW,308,1.0,2.0,94,0.00,,,0.02,Wunderground v.1.15,2013-07-25 18:02:00,
2013-07-25 14:03:00,64.5,62.7,30.03,NNW,347,2.0,2.0,94,0.00,,,0.02,Wunderground v.1.15,2013-07-25 18:03:00,
2013-07-25 14:04:00,64.5,62.7,30.04,NNE,18,3.0,3.0,94,0.00,,,0.02,Wunderground v.1.15,2013-07-25 18:04:00,
2013-07-25 14:05:00,64.5,62.7,30.04,North,352,1.0,3.0,94,0.00,,,0.02,Wunderground v.1.15,2013-07-25 18:05:00,
2013-07-25 14:07:00,64.4,62.6,30.03,NE,50,1.0,3.0,94,0.00,,,0.02,Wunderground v.1.15,2013-07-25 18:07:00,
2013-07-25 14:08:00,64.4,62.6,30.03,NE,39,2.0,3.0,94,0.00,,,0.02,Wunderground v.1.15,2013-07-25 18:08:00,
2013-07-25 14:10:00,64.3,62.5,30.03,NNW,341,1.0,1.0,94,0.00,,,0.02,Wunderground v.1.15,2013-07-25 18:10:00,
2013-07-25 14:12:00,64.3,62.5,30.03,North,350,1.0,2.0,94,0.00,,,0.02,Wunderground v.1.15,2013-07-25 18:12:00,
2013-07-25 14:13:00,64.4,62.6,30.03,West,281,3.0,3.0,94,0.00,,,0.02,Wunderground v.1.15,2013-07-25 18:13:00,
2013-07-25 14:15:00,64.4,62.6,30.03,North,6,2.0,4.0,94,0.00,,,0.02,Wunderground v.1.15,2013-07-25 18:15:00,
2013-07-25 14:17:00,64.4,62.6,30.03,NNE,32,1.0,4.0,94,0.00,,,0.02,Wunderground v.1.15,2013-07-25 18:17:00,
2013-07-25 14:19:00,64.4,62.6,30.03,NNW,340,1.0,4.0,94,0.00,,,0.02,Wunderground v.1.15,2013-07-25 18:19:00,
2013-07-25 14:20:00,64.4,62.6,30.03,NNE,29,1.0,1.0,94,0.00,,,0.02,Wunderground v.1.15,2013-07-25 18:20:00,
2013-07-25 14:22:00,64.5,62.7,30.03,NNE,18,2.0,3.0,94,0.00,,,0.02,Wunderground v.1.15,2013-07-25 18:22:00,
2013-07-25 14:24:00,64.5,62.7,30.03,NNE,21,4.0,5.0,94,0.00,,,0.02,Wunderground v.1.15,2013-07-25 18:24:00,
2013-07-25 14:25:00,64.5,62.7,30.03,NNE,19,0.0,5.0,94,0.00,,,0.02,Wunderground v.1.15,2013-07-25 18:25:00,
2013-07-25 14:26:00,64.5,62.7,30.03,NNE,16,1.0,5.0,94,0.00,,,0.02,Wunderground v.1.15,2013-07-25 18:26:00,
2013-07-25 14:27:00,64.5,62.7,30.03,North,352,1.0,5.0,94,0.00,,,0.02,Wunderground v.1.15,2013-07-25 18:27:00,
2013-07-25 14:28:00,64.6,62.8,30.03,NNE,32,2.0,5.0,94,0.00,,,0.02,Wunderground v.1.15,2013-07-25 18:28:00,
2013-07-25 14:29:00,64.6,62.8,30.03,NNE,15,1.0,5.0,94,0.00,,,0.02,Wunderground v.1.15,2013-07-25 18:29:00,
2013-07-25 14:31:00,64.5,62.7,30.03,NNW,328,3.0,4.0,94,0.00,,,0.02,Wunderground v.1.15,2013-07-25 18:31:00,
2013-07-25 14:32:00,64.5,62.4,30.02,NNW,338,0.0,4.0,93,0.00,,,0.02,Wunderground v.1.15,2013-07-25 18:32:00,
2013-07-25 14:33:00,64.5,62.4,30.03,NNW,344,1.0,4.0,93,0.00,,,0.02,Wunderground v.1.15,2013-07-25 18:33:00,
2013-07-25 14:34:00,64.5,62.7,30.02,NE,36,2.0,4.0,94,0.00,,,0.02,Wunderground v.1.15,2013-07-25 18:34:00,
2013-07-25 14:36:00,64.5,62.4,30.02,ENE,57,2.0,6.0,93,0.00,,,0.02,Wunderground v.1.15,2013-07-25 18:36:00,
2013-07-25 14:37:00,64.5,62.4,30.02,NNW,340,1.0,6.0,93,0.00,,,0.02,Wunderground v.1.15,2013-07-25 18:37:00,
2013-07-25 14:38:00,64.5,62.4,30.02,ESE,110,2.0,6.0,93,0.00,,,0.02,Wunderground v.1.15,2013-07-25 18:38:00,
2013-07-25 14:39:00,64.5,62.4,30.02,NNW,347,1.0,6.0,93,0.00,,,0.02,Wunderground v.1.15,2013-07-25 18:39:00,
2013-07-25 14:41:00,64.7,62.9,30.02,SSE,159,2.0,2.0,94,0.00,,,0.02,Wunderground v.1.15,2013-07-25 18:41:00,
2013-07-25 14:42:00,64.8,63.0,30.02,ENE,72,2.0,3.0,94,0.00,,,0.02,Wunderground v.1.15,2013-07-25 18:42:00,
2013-07-25 14:43:00,64.8,63.0,30.02,SE,142,1.0,4.0,94,0.00,,,0.02,Wunderground v.1.15,2013-07-25 18:43:00,
2013-07-25 14:44:00,64.9,63.1,30.02,NNE,32,2.0,4.0,94,0.00,,,0.02,Wunderground v.1.15,2013-07-25 18:44:00,
2013-07-25 14:46:00,64.9,62.8,30.02,ENE,77,2.0,4.0,93,0.00,,,0.02,Wunderground v.1.15,2013-07-25 18:46:00,
2013-07-25 14:47:00,64.9,62.8,30.03,SE,128,1.0,4.0,93,0.00,,,0.02,Wunderground v.1.15,2013-07-25 18:47:00,
2013-07-25 14:49:00,64.9,62.8,30.03,East,79,1.0,4.0,93,0.00,,,0.02,Wunderground v.1.15,2013-07-25 18:49:00,
2013-07-25 14:51:00,64.9,62.8,30.03,NW,323,0.0,2.0,93,0.00,,,0.02,Wunderground v.1.15,2013-07-25 18:51:00,
2013-07-25 14:53:00,64.9,62.8,30.03,NE,37,0.0,2.0,93,0.00,,,0.02,Wunderground v.1.15,2013-07-25 18:53:00,
2013-07-25 14:54:00,65.0,62.9,30.03,NNW,328,1.0,2.0,93,0.00,,,0.02,Wunderground v.1.15,2013-07-25 18:54:00,
2013-07-25 14:55:00,65.0,62.9,30.03,NNW,329,0.0,2.0,93,0.00,,,0.02,Wunderground v.1.15,2013-07-25 18:55:00,
2013-07-25 14:56:00,65.0,62.9,30.03,NW,326,3.0,3.0,93,0.00,,,0.02,Wunderground v.1.15,2013-07-25 18:56:00,
2013-07-25 14:58:00,65.0,62.9,30.03,NNE,25,2.0,4.0,93,0.00,,,0.02,Wunderground v.1.15,2013-07-25 18:58:00,
2013-07-25 14:59:00,64.9,62.8,30.03,NW,315,2.0,4.0,93,0.00,,,0.02,Wunderground v.1.15,2013-07-25 18:59:00,
2013-07-25 15:00:00,64.9,62.8,30.03,North,9,2.0,3.0,93,0.00,,,0.02,Wunderground v.1.15,2013-07-25 19:00:00,
2013-07-25 15:01:00,64.8,62.7,30.03,North,7,0.0,3.0,93,0.00,,,0.02,Wunderground v.1.15,2013-07-25 19:01:00,
2013-07-25 15:03:00,64.8,62.7,30.03,North,11,4.0,4.0,93,0.00,,,0.02,Wunderground v.1.15,2013-07-25 19:03:00,
2013-07-25 15:04:00,64.8,62.7,30.03,North,6,2.0,4.0,93,0.00,,,0.02,Wunderground v.1.15,2013-07-25 19:04:00,
2013-07-25 15:05:00,64.8,62.7,30.03,NE,50,0.0,4.0,93,0.00,,,0.02,Wunderground v.1.15,2013-07-25 19:05:00,
2013-07-25 15:06:00,64.8,62.7,30.03,SE,132,0.0,4.0,93,0.00,,,0.02,Wunderground v.1.15,2013-07-25 19:06:00,
2013-07-25 15:08:00,64.8,62.7,30.03,North,11,1.0,4.0,93,0.00,,,0.02,Wunderground v.1.15,2013-07-25 19:08:00,
2013-07-25 15:09:00,64.8,62.7,30.03,East,79,0.0,4.0,93,0.00,,,0.02,Wunderground v.1.15,2013-07-25 19:09:00,
2013-07-25 15:10:00,64.8,62.7,30.03,NNW,347,3.0,3.0,93,0.00,,,0.02,Wunderground v.1.15,2013-07-25 19:10:00,
2013-07-25 15:12:00,64.8,62.4,30.03,NW,323,0.0,3.0,92,0.00,,,0.02,Wunderground v.1.15,2013-07-25 19:12:00,
2013-07-25 15:13:00,64.8,62.7,30.03,NE,34,0.0,3.0,93,0.00,,,0.02,Wunderground v.1.15,2013-07-25 19:13:00,
2013-07-25 15:14:00,64.8,62.7,30.03,NNE,23,1.0,3.0,93,0.00,,,0.02,Wunderground v.1.15,2013-07-25 19:14:00,
2013-07-25 15:15:00,64.8,62.7,30.03,NNW,347,2.0,3.0,93,0.00,,,0.02,Wunderground v.1.15,2013-07-25 19:15:00,
2013-07-25 15:16:00,64.8,62.4,30.03,NNW,342,3.0,4.0,92,0.00,,,0.02,Wunderground v.1.15,2013-07-25 19:16:00,
2013-07-25 15:19:00,64.8,62.4,30.03,NNW,339,1.0,4.0,92,0.00,,,0.02,Wunderground v.1.15,2013-07-25 19:19:00,
2013-07-25 15:20:00,64.8,62.4,30.03,NE,56,3.0,4.0,92,0.00,,,0.02,Wunderground v.1.15,2013-07-25 19:20:00,
2013-07-25 15:22:00,64.8,62.4,30.03,NNE,29,2.0,9.0,92,0.00,,,0.02,Wunderground v.1.15,2013-07-25 19:22:00,
2013-07-25 15:24:00,64.8,62.4,30.03,North,351,2.0,9.0,92,0.00,,,0.02,Wunderground v.1.15,2013-07-25 19:24:00,
2013-07-25 15:25:00,64.8,62.4,30.03,NNE,19,0.0,9.0,92,0.00,,,0.02,Wunderground v.1.15,2013-07-25 19:25:00,
2013-07-25 15:27:00,64.9,62.5,30.03,NNW,339,4.0,9.0,92,0.00,,,0.02,Wunderground v.1.15,2013-07-25 19:27:00,
2013-07-25 15:29:00,64.9,62.5,30.03,NNE,25,1.0,9.0,92,0.00,,,0.02,Wunderground v.1.15,2013-07-25 19:29:00,
2013-07-25 15:30:00,64.9,62.5,30.03,NW,308,1.0,3.0,92,0.00,,,0.02,Wunderground v.1.15,2013-07-25 19:30:00,
2013-07-25 15:32:00,64.8,62.4,30.03,North,356,0.0,5.0,92,0.00,,,0.02,Wunderground v.1.15,2013-07-25 19:32:00,
2013-07-25 15:34:00,64.8,62.4,30.03,NE,37,1.0,5.0,92,0.00,,,0.02,Wunderground v.1.15,2013-07-25 19:34:00,
2013-07-25 15:35:00,64.8,62.4,30.03,SSE,163,0.0,5.0,92,0.00,,,0.02,Wunderground v.1.15,2013-07-25 19:35:00,
2013-07-25 15:36:00,64.8,62.4,30.03,NNW,341,0.0,5.0,92,0.00,,,0.02,Wunderground v.1.15,2013-07-25 19:36:00,
2013-07-25 15:37:00,64.8,62.4,30.03,NNE,16,0.0,5.0,92,0.00,,,0.02,Wunderground v.1.15,2013-07-25 19:37:00,
2013-07-25 15:39:00,64.8,62.4,30.03,North,354,3.0,5.0,92,0.00,,,0.02,Wunderground v.1.15,2013-07-25 19:39:00,
2013-07-25 15:40:00,64.8,62.4,30.03,North,349,0.0,3.0,92,0.00,,,0.02,Wunderground v.1.15,2013-07-25 19:40:00,
2013-07-25 15:41:00,64.8,62.4,30.03,NNW,331,0.0,3.0,92,0.00,,,0.02,Wunderground v.1.15,2013-07-25 19:41:00,
2013-07-25 15:42:00,64.8,62.4,30.03,NE,50,2.0,3.0,92,0.00,,,0.02,Wunderground v.1.15,2013-07-25 19:42:00,
2013-07-25 15:44:00,64.8,62.4,30.03,NNW,346,0.0,3.0,92,0.00,,,0.02,Wunderground v.1.15,2013-07-25 19:44:00,
2013-07-25 15:45:00,64.8,62.4,30.03,North,9,0.0,3.0,92,0.00,,,0.02,Wunderground v.1.15,2013-07-25 19:45:00,
2013-07-25 15:46:00,64.8,62.4,30.03,NNE,20,0.0,3.0,92,0.00,,,0.02,Wunderground v.1.15,2013-07-25 19:46:00,
2013-07-25 15:47:00,64.8,62.4,30.03,North,360,2.0,4.0,92,0.00,,,0.02,Wunderground v.1.15,2013-07-25 19:47:00,
2013-07-25 15:50:00,64.8,62.4,30.02,North,360,1.0,3.0,92,0.00,,,0.02,Wunderground v.1.15,2013-07-25 19:50:00,
2013-07-25 15:51:00,64.8,62.4,30.02,NNW,346,1.0,4.0,92,0.00,,,0.02,Wunderground v.1.15,2013-07-25 19:51:00,
2013-07-25 15:52:00,64.8,62.4,30.02,NW,307,1.0,4.0,92,0.00,,,0.02,Wunderground v.1.15,2013-07-25 19:52:00,
2013-07-25 15:53:00,64.8,62.4,30.02,WNW,287,1.0,4.0,92,0.00,,,0.02,Wunderground v.1.15,2013-07-25 19:53:00,
2013-07-25 15:55:00,64.8,62.4,30.02,NNE,26,4.0,4.0,92,0.00,,,0.02,Wunderground v.1.15,2013-07-25 19:55:00,
2013-07-25 15:56:00,64.8,62.4,30.02,NNW,342,3.0,6.0,92,0.00,,,0.02,Wunderground v.1.15,2013-07-25 19:56:00,
2013-07-25 15:57:00,64.7,62.3,30.02,NE,51,1.0,6.0,92,0.00,,,0.02,Wunderground v.1.15,2013-07-25 19:57:00,
2013-07-25 15:58:00,64.7,62.3,30.02,NW,319,1.0,6.0,92,0.00,,,0.02,Wunderground v.1.15,2013-07-25 19:58:00,
2013-07-25 16:01:00,64.7,62.3,30.02,WNW,301,0.0,3.0,92,0.00,,,0.02,Wunderground v.1.15,2013-07-25 20:01:00,
2013-07-25 16:02:00,64.7,62.3,30.02,NNE,32,0.0,3.0,92,0.00,,,0.02,Wunderground v.1.15,2013-07-25 20:02:00,
2013-07-25 16:03:00,64.7,62.3,30.02,North,354,1.0,3.0,92,0.00,,,0.02,Wunderground v.1.15,2013-07-25 20:03:00,
2013-07-25 16:06:00,64.7,62.3,30.02,NNE,32,1.0,4.0,92,0.00,,,0.02,Wunderground v.1.15,2013-07-25 20:06:00,
2013-07-25 16:07:00,64.7,62.3,30.02,NNE,28,2.0,4.0,92,0.00,,,0.02,Wunderground v.1.15,2013-07-25 20:07:00,
2013-07-25 16:08:00,64.7,62.3,30.02,East,98,7.0,7.0,92,0.00,,,0.02,Wunderground v.1.15,2013-07-25 20:08:00,
2013-07-25 16:11:00,64.7,62.3,30.02,North,351,2.0,3.0,92,0.00,,,0.02,Wunderground v.1.15,2013-07-25 20:11:00,
2013-07-25 16:12:00,64.7,62.3,30.02,North,349,1.0,3.0,92,0.00,,,0.02,Wunderground v.1.15,2013-07-25 20:12:00,
2013-07-25 16:14:00,64.7,62.3,30.02,NNW,339,3.0,3.0,92,0.00,,,0.02,Wunderground v.1.15,2013-07-25 20:14:00,
2013-07-25 16:17:00,64.7,62.3,30.02,NNW,338,1.0,7.0,92,0.00,,,0.02,Wunderground v.1.15,2013-07-25 20:17:00,
2013-07-25 16:19:00,64.8,62.4,30.02,North,358,2.0,7.0,92,0.00,,,0.02,Wunderground v.1.15,2013-07-25 20:19:00,
2013-07-25 16:22:00,64.8,62.1,30.02,NNE,16,1.0,3.0,91,0.00,,,0.02,Wunderground v.1.15,2013-07-25 20:22:00,
2013-07-25 16:23:00,64.8,62.1,30.02,NE,40,2.0,3.0,91,0.00,,,0.02,Wunderground v.1.15,2013-07-25 20:23:00,
2013-07-25 16:24:00,64.8,62.1,30.02,NE,56,3.0,3.0,91,0.00,,,0.02,Wunderground v.1.15,2013-07-25 20:24:00,
2013-07-25 16:27:00,64.8,62.1,30.02,North,356,2.0,5.0,91,0.00,,,0.02,Wunderground v.1.15,2013-07-25 20:27:00,
2013-07-25 16:28:00,64.7,62.0,30.02,NNW,333,1.0,5.0,91,0.00,,,0.02,Wunderground v.1.15,2013-07-25 20:28:00,
2013-07-25 16:29:00,64.7,62.0,30.03,North,11,2.0,5.0,91,0.00,,,0.02,Wunderground v.1.15,2013-07-25 20:29:00,
2013-07-25 16:32:00,64.7,62.0,30.02,NNE,29,0.0,3.0,91,0.00,,,0.02,Wunderground v.1.15,2013-07-25 20:32:00,
2013-07-25 16:33:00,64.7,62.0,30.03,North,352,1.0,3.0,91,0.00,,,0.02,Wunderground v.1.15,2013-07-25 20:33:00,
2013-07-25 16:34:00,64.7,62.0,30.02,North,356,0.0,3.0,91,0.00,,,0.02,Wunderground v.1.15,2013-07-25 20:34:00,
2013-07-25 16:37:00,64.8,62.1,30.03,West,266,1.0,3.0,91,0.00,,,0.02,Wunderground v.1.15,2013-07-25 20:37:00,
2013-07-25 16:38:00,64.8,62.1,30.03,ENE,71,1.0,3.0,91,0.00,,,0.02,Wunderground v.1.15,2013-07-25 20:38:00,
2013-07-25 16:40:00,64.9,62.5,30.03,NNE,25,0.0,2.0,92,0.00,,,0.02,Wunderground v.1.15,2013-07-25 20:40:00,
2013-07-25 16:42:00,64.9,62.2,30.03,NE,41,0.0,3.0,91,0.00,,,0.02,Wunderground v.1.15,2013-07-25 20:42:00,
2013-07-25 16:43:00,64.9,62.2,30.03,NNW,333,0.0,3.0,91,0.00,,,0.02,Wunderground v.1.15,2013-07-25 20:43:00,
2013-07-25 16:44:00,64.9,62.2,30.03,North,358,1.0,3.0,91,0.00,,,0.02,Wunderground v.1.15,2013-07-25 20:44:00,
2013-07-25 16:45:00,64.8,62.1,30.03,West,271,0.0,3.0,91,0.00,,,0.02,Wunderground v.1.15,2013-07-25 20:45:00,
2013-07-25 16:47:00,64.8,62.1,30.03,WSW,252,1.0,3.0,91,0.00,,,0.02,Wunderground v.1.15,2013-07-25 20:47:00,
2013-07-25 16:48:00,64.8,62.1,30.03,North,352,1.0,3.0,91,0.00,,,0.02,Wunderground v.1.15,2013-07-25 20:48:00,
2013-07-25 16:49:00,64.8,62.1,30.03,NNW,342,1.0,3.0,91,0.00,,,0.02,Wunderground v.1.15,2013-07-25 20:49:00,
2013-07-25 16:50:00,64.8,62.1,30.03,NNW,343,4.0,4.0,91,0.00,,,0.02,Wunderground v.1.15,2013-07-25 20:50:00,
2013-07-25 16:53:00,64.7,62.0,30.03,NNW,329,3.0,4.0,91,0.00,,,0.02,Wunderground v.1.15,2013-07-25 20:53:00,
2013-07-25 16:54:00,64.7,62.0,30.03,NNE,27,1.0,4.0,91,0.00,,,0.02,Wunderground v.1.15,2013-07-25 20:54:00,
2013-07-25 16:55:00,64.7,62.0,30.03,North,356,1.0,4.0,91,0.00,,,0.02,Wunderground v.1.15,2013-07-25 20:55:00,
2013-07-25 16:58:00,64.7,62.0,30.03,North,5,2.0,4.0,91,0.00,,,0.02,Wunderground v.1.15,2013-07-25 20:58:00,
2013-07-25 16:59:00,64.7,62.0,30.03,North,356,1.0,4.0,91,0.00,,,0.02,Wunderground v.1.15,2013-07-25 20:59:00,
2013-07-25 17:00:00,64.6,61.9,30.03,ENE,75,1.0,3.0,91,0.00,,,0.02,Wunderground v.1.15,2013-07-25 21:00:00,
2013-07-25 17:03:00,64.6,61.9,30.03,East,82,1.0,3.0,91,0.00,,,0.02,Wunderground v.1.15,2013-07-25 21:03:00,
2013-07-25 17:04:00,64.6,61.9,30.03,NNW,342,2.0,3.0,91,0.00,,,0.02,Wunderground v.1.15,2013-07-25 21:04:00,
2013-07-25 17:05:00,64.5,61.8,30.03,NNW,336,2.0,3.0,91,0.00,,,0.02,Wunderground v.1.15,2013-07-25 21:05:00,
2013-07-25 17:08:00,64.5,61.8,30.04,North,356,1.0,5.0,91,0.00,,,0.02,Wunderground v.1.15,2013-07-25 21:08:00,
2013-07-25 17:09:00,64.5,61.8,30.04,NE,34,0.0,5.0,91,0.00,,,0.02,Wunderground v.1.15,2013-07-25 21:09:00,
2013-07-25 17:10:00,64.5,62.1,30.04,NW,318,1.0,1.0,92,0.00,,,0.02,Wunderground v.1.15,2013-07-25 21:10:00,
2013-07-25 17:13:00,64.4,61.7,30.03,WSW,250,2.0,5.0,91,0.00,,,0.02,Wunderground v.1.15,2013-07-25 21:13:00,
2013-07-25 17:14:00,64.3,61.6,30.03,NE,41,2.0,5.0,91,0.00,,,0.02,Wunderground v.1.15,2013-07-25 21:14:00,
2013-07-25 17:15:00,64.3,61.6,30.03,North,349,1.0,5.0,91,0.00,,,0.02,Wunderground v.1.15,2013-07-25 21:15:00,
2013-07-25 17:18:00,64.3,61.6,30.03,NNW,337,1.0,5.0,91,0.00,,,0.02,Wunderground v.1.15,2013-07-25 21:18:00,
2013-07-25 17:19:00,64.2,61.5,30.03,NW,321,0.0,5.0,91,0.00,,,0.02,Wunderground v.1.15,2013-07-25 21:19:00,
2013-07-25 17:20:00,64.3,61.6,30.03,NNW,340,1.0,2.0,91,0.00,,,0.02,Wunderground v.1.15,2013-07-25 21:20:00,
2013-07-25 17:23:00,64.3,61.9,30.03,NNE,26,1.0,3.0,92,0.00,,,0.02,Wunderground v.1.15,2013-07-25 21:23:00,
2013-07-25 17:24:00,64.3,61.6,30.03,North,354,2.0,4.0,91,0.00,,,0.02,Wunderground v.1.15,2013-07-25 21:24:00,
2013-07-25 17:25:00,64.3,61.6,30.03,NNE,15,5.0,5.0,91,0.00,,,0.02,Wunderground v.1.15,2013-07-25 21:25:00,
2013-07-25 17:26:00,64.3,61.6,30.03,NE,41,1.0,5.0,91,0.00,,,0.02,Wunderground v.1.15,2013-07-25 21:26:00,
2013-07-25 17:28:00,64.2,61.5,30.03,NNE,32,1.0,5.0,91,0.00,,,0.02,Wunderground v.1.15,2013-07-25 21:28:00,
2013-07-25 17:29:00,64.2,61.5,30.03,NNW,329,1.0,5.0,91,0.00,,,0.02,Wunderground v.1.15,2013-07-25 21:29:00,
2013-07-25 17:30:00,64.2,61.5,30.03,NNW,329,1.0,3.0,91,0.00,,,0.02,Wunderground v.1.15,2013-07-25 21:30:00,
2013-07-25 17:31:00,64.2,61.5,30.03,WNW,295,2.0,3.0,91,0.00,,,0.02,Wunderground v.1.15,2013-07-25 21:31:00,
2013-07-25 17:32:00,64.2,61.5,30.03,NE,43,1.0,5.0,91,0.00,,,0.02,Wunderground v.1.15,2013-07-25 21:32:00,
2013-07-25 17:34:00,64.2,61.5,30.03,NNW,331,1.0,5.0,91,0.00,,,0.02,Wunderground v.1.15,2013-07-25 21:34:00,
2013-07-25 17:36:00,64.2,61.5,30.03,NNE,30,2.0,5.0,91,0.00,,,0.02,Wunderground v.1.15,2013-07-25 21:36:00,
2013-07-25 17:37:00,64.2,61.5,30.03,NNW,348,1.0,5.0,91,0.00,,,0.02,Wunderground v.1.15,2013-07-25 21:37:00,
2013-07-25 17:39:00,64.2,61.5,30.03,NW,308,1.0,5.0,91,0.00,,,0.02,Wunderground v.1.15,2013-07-25 21:39:00,
2013-07-25 17:41:00,64.2,61.5,30.03,North,11,2.0,4.0,91,0.00,,,0.02,Wunderground v.1.15,2013-07-25 21:41:00,
2013-07-25 17:42:00,64.2,61.5,30.03,NNW,348,2.0,4.0,91,0.00,,,0.02,Wunderground v.1.15,2013-07-25 21:42:00,
2013-07-25 17:44:00,64.1,61.4,30.03,NNW,344,2.0,5.0,91,0.00,,,0.02,Wunderground v.1.15,2013-07-25 21:44:00,
2013-07-25 17:45:00,64.1,61.4,30.03,NNW,340,0.0,5.0,91,0.00,,,0.02,Wunderground v.1.15,2013-07-25 21:45:00,
2013-07-25 17:46:00,64.1,61.4,30.03,East,79,0.0,5.0,91,0.00,,,0.02,Wunderground v.1.15,2013-07-25 21:46:00,
2013-07-25 17:47:00,64.1,61.7,30.03,ENE,63,0.0,5.0,92,0.00,,,0.02,Wunderground v.1.15,2013-07-25 21:47:00,
2013-07-25 17:49:00,64.1,61.7,30.03,NW,315,1.0,5.0,92,0.00,,,0.02,Wunderground v.1.15,2013-07-25 21:49:00,
2013-07-25 17:50:00,64.1,61.7,30.03,North,359,1.0,2.0,92,0.00,,,0.02,Wunderground v.1.15,2013-07-25 21:50:00,
2013-07-25 17:51:00,64.0,61.6,30.03,NNE,32,1.0,3.0,92,0.00,,,0.02,Wunderground v.1.15,2013-07-25 21:51:00,
2013-07-25 17:52:00,64.0,61.6,30.03,NE,34,3.0,3.0,92,0.00,,,0.02,Wunderground v.1.15,2013-07-25 21:52:00,
2013-07-25 17:54:00,64.0,61.6,30.03,NNE,15,0.0,4.0,92,0.00,,,0.02,Wunderground v.1.15,2013-07-25 21:54:00,
2013-07-25 17:55:00,64.0,61.6,30.03,North,349,1.0,4.0,92,0.00,,,0.02,Wunderground v.1.15,2013-07-25 21:55:00,
2013-07-25 17:56:00,64.0,61.6,30.03,NE,56,1.0,4.0,92,0.00,,,0.02,Wunderground v.1.15,2013-07-25 21:56:00,
2013-07-25 17:57:00,64.0,61.6,30.03,North,356,2.0,4.0,92,0.00,,,0.02,Wunderground v.1.15,2013-07-25 21:57:00,
2013-07-25 18:00:00,63.9,61.5,30.03,NNW,347,1.0,2.0,92,0.00,,,0.02,Wunderground v.1.15,2013-07-25 22:00:00,
2013-07-25 18:02:00,63.9,61.5,30.03,North,356,1.0,2.0,92,0.00,,,0.02,Wunderground v.1.15,2013-07-25 22:02:00,
2013-07-25 18:03:00,63.9,61.5,30.03,North,6,2.0,2.0,92,0.00,,,0.02,Wunderground v.1.15,2013-07-25 22:03:00,
2013-07-25 18:05:00,63.9,61.5,30.03,NNE,16,1.0,4.0,92,0.00,,,0.02,Wunderground v.1.15,2013-07-25 22:05:00,
2013-07-25 18:07:00,63.8,61.4,30.03,North,356,1.0,4.0,92,0.00,,,0.02,Wunderground v.1.15,2013-07-25 22:07:00,
2013-07-25 18:08:00,63.8,61.4,30.03,NNW,335,2.0,4.0,92,0.00,,,0.02,Wunderground v.1.15,2013-07-25 22:08:00,
2013-07-25 18:11:00,63.8,61.7,30.03,North,351,0.0,2.0,93,0.00,,,0.02,Wunderground v.1.15,2013-07-25 22:11:00,
2013-07-25 18:12:00,63.7,61.6,30.03,North,9,1.0,2.0,93,0.00,,,0.02,Wunderground v.1.15,2013-07-25 22:12:00,
2013-07-25 18:13:00,63.7,61.6,30.03,NNE,28,0.0,2.0,93,0.00,,,0.02,Wunderground v.1.15,2013-07-25 22:13:00,
2013-07-25 18:16:00,63.7,61.6,30.03,NNW,341,3.0,3.0,93,0.00,,,0.02,Wunderground v.1.15,2013-07-25 22:16:00,
2013-07-25 18:17:00,63.7,61.6,30.03,North,5,1.0,3.0,93,0.00,,,0.02,Wunderground v.1.15,2013-07-25 22:17:00,
2013-07-25 18:18:00,63.7,61.6,30.03,NNE,13,1.0,3.0,93,0.00,,,0.02,Wunderground v.1.15,2013-07-25 22:18:00,
2013-07-25 18:21:00,63.6,61.5,30.03,North,3,1.0,4.0,93,0.00,,,0.02,Wunderground v.1.15,2013-07-25 22:21:00,
2013-07-25 18:22:00,63.6,61.5,30.03,NNE,16,1.0,4.0,93,0.00,,,0.02,Wunderground v.1.15,2013-07-25 22:22:00,
2013-07-25 18:23:00,63.5,61.4,30.03,NNW,347,1.0,4.0,93,0.00,,,0.02,Wunderground v.1.15,2013-07-25 22:23:00,
2013-07-25 18:27:00,63.5,61.4,30.03,NW,309,0.0,4.0,93,0.00,,,0.02,Wunderground v.1.15,2013-07-25 22:27:00,
2013-07-25 18:28:00,63.5,61.4,30.03,NNW,341,1.0,4.0,93,0.00,,,0.02,Wunderground v.1.15,2013-07-25 22:28:00,
2013-07-25 18:32:00,63.4,61.3,30.03,NNW,337,1.0,3.0,93,0.00,,,0.02,Wunderground v.1.15,2013-07-25 22:32:00,
2013-07-25 18:33:00,63.4,61.3,30.03,NNW,343,1.0,4.0,93,0.00,,,0.02,Wunderground v.1.15,2013-07-25 22:33:00,
2013-07-25 18:34:00,63.4,61.3,30.03,NW,304,1.0,4.0,93,0.00,,,0.02,Wunderground v.1.15,2013-07-25 22:34:00,
2013-07-25 18:37:00,63.3,61.2,30.03,North,354,0.0,4.0,93,0.00,,,0.02,Wunderground v.1.15,2013-07-25 22:37:00,
2013-07-25 18:38:00,63.3,61.5,30.03,NE,34,3.0,4.0,94,0.00,,,0.02,Wunderground v.1.15,2013-07-25 22:38:00,
2013-07-25 18:39:00,63.3,61.5,30.03,NNW,345,0.0,4.0,94,0.00,,,0.02,Wunderground v.1.15,2013-07-25 22:39:00,
2013-07-25 18:42:00,63.2,61.4,30.04,NNW,345,2.0,4.0,94,0.00,,,0.02,Wunderground v.1.15,2013-07-25 22:42:00,
2013-07-25 18:43:00,63.3,61.5,30.04,North,358,2.0,4.0,94,0.00,,,0.02,Wunderground v.1.15,2013-07-25 22:43:00,
2013-07-25 18:44:00,63.2,61.4,30.04,North,7,1.0,4.0,94,0.00,,,0.02,Wunderground v.1.15,2013-07-25 22:44:00,
2013-07-25 18:48:00,63.2,61.4,30.04,North,352,2.0,4.0,94,0.00,,,0.02,Wunderground v.1.15,2013-07-25 22:48:00,
2013-07-25 18:49:00,63.2,61.4,30.04,NNW,346,3.0,4.0,94,0.00,,,0.02,Wunderground v.1.15,2013-07-25 22:49:00,
2013-07-25 18:50:00,63.1,61.3,30.04,North,351,4.0,4.0,94,0.00,,,0.02,Wunderground v.1.15,2013-07-25 22:50:00,
2013-07-25 18:53:00,63.1,61.3,30.04,WNW,285,1.0,4.0,94,0.00,,,0.02,Wunderground v.1.15,2013-07-25 22:53:00,
2013-07-25 18:54:00,63.1,61.3,30.04,North,360,1.0,4.0,94,0.00,,,0.02,Wunderground v.1.15,2013-07-25 22:54:00,
2013-07-25 18:55:00,63.0,61.2,30.04,NNW,341,1.0,4.0,94,0.00,,,0.02,Wunderground v.1.15,2013-07-25 22:55:00,
2013-07-25 18:58:00,63.0,61.2,30.04,North,350,1.0,4.0,94,0.00,,,0.02,Wunderground v.1.15,2013-07-25 22:58:00,
2013-07-25 18:59:00,63.0,61.2,30.04,NW,322,1.0,4.0,94,0.00,,,0.02,Wunderground v.1.15,2013-07-25 22:59:00,
2013-07-25 19:00:00,63.0,61.2,30.04,NE,37,1.0,2.0,94,0.00,,,0.02,Wunderground v.1.15,2013-07-25 23:00:00,
2013-07-25 19:03:00,62.9,61.1,30.04,NW,322,1.0,3.0,94,0.00,,,0.02,Wunderground v.1.15,2013-07-25 23:03:00,
2013-07-25 19:04:00,62.9,61.1,30.04,NNE,12,1.0,3.0,94,0.00,,,0.02,Wunderground v.1.15,2013-07-25 23:04:00,
2013-07-25 19:05:00,62.9,61.1,30.04,North,349,1.0,4.0,94,0.00,,,0.02,Wunderground v.1.15,2013-07-25 23:05:00,
2013-07-25 19:08:00,62.9,61.1,30.04,NNW,336,0.0,4.0,94,0.00,,,0.02,Wunderground v.1.15,2013-07-25 23:08:00,
2013-07-25 19:09:00,62.9,61.1,30.04,NNW,330,3.0,4.0,94,0.00,,,0.02,Wunderground v.1.15,2013-07-25 23:09:00,
2013-07-25 19:11:00,62.9,61.1,30.04,NNW,342,2.0,3.0,94,0.00,,,0.02,Wunderground v.1.15,2013-07-25 23:11:00,
2013-07-25 19:13:00,62.9,61.1,30.04,North,359,0.0,3.0,94,0.00,,,0.02,Wunderground v.1.15,2013-07-25 23:13:00,
2013-07-25 19:14:00,62.9,61.1,30.04,NNW,331,1.0,3.0,94,0.00,,,0.02,Wunderground v.1.15,2013-07-25 23:14:00,
2013-07-25 19:15:00,62.8,61.0,30.04,ENE,57,0.0,3.0,94,0.00,,,0.02,Wunderground v.1.15,2013-07-25 23:15:00,
2013-07-25 19:16:00,62.9,61.1,30.04,NNW,347,0.0,3.0,94,0.00,,,0.02,Wunderground v.1.15,2013-07-25 23:16:00,
2013-07-25 19:18:00,62.9,61.1,30.04,North,350,1.0,3.0,94,0.00,,,0.02,Wunderground v.1.15,2013-07-25 23:18:00,
2013-07-25 19:19:00,62.8,61.0,30.04,NNW,331,1.0,3.0,94,0.00,,,0.02,Wunderground v.1.15,2013-07-25 23:19:00,
2013-07-25 19:20:00,62.8,61.0,30.03,North,11,1.0,1.0,94,0.00,,,0.02,Wunderground v.1.15,2013-07-25 23:20:00,
2013-07-25 19:21:00,62.9,61.1,30.04,NNW,338,1.0,3.0,94,0.00,,,0.02,Wunderground v.1.15,2013-07-25 23:21:00,
2013-07-25 19:24:00,62.8,61.3,30.04,North,6,1.0,3.0,95,0.00,,,0.02,Wunderground v.1.15,2013-07-25 23:24:00,
2013-07-25 19:25:00,62.8,61.0,30.04,ENE,66,0.0,3.0,94,0.00,,,0.02,Wunderground v.1.15,2013-07-25 23:25:00,
2013-07-25 19:26:00,62.8,61.3,30.04,NNW,340,2.0,3.0,95,0.00,,,0.02,Wunderground v.1.15,2013-07-25 23:26:00,
2013-07-25 19:29:00,62.8,61.3,30.04,NNW,331,1.0,4.0,95,0.00,,,0.02,Wunderground v.1.15,2013-07-25 23:29:00,
2013-07-25 19:30:00,62.8,61.3,30.03,NW,325,2.0,2.0,95,0.00,,,0.02,Wunderground v.1.15,2013-07-25 23:30:00,
2013-07-25 19:31:00,62.7,61.2,30.03,NNW,335,1.0,2.0,95,0.00,,,0.02,Wunderground v.1.15,2013-07-25 23:31:00,
2013-07-25 19:34:00,62.7,61.2,30.03,West,281,1.0,3.0,95,0.00,,,0.02,Wunderground v.1.15,2013-07-25 23:34:00,
2013-07-25 19:35:00,62.7,61.2,30.03,NNE,19,2.0,3.0,95,0.00,,,0.02,Wunderground v.1.15,2013-07-25 23:35:00,
2013-07-25 19:36:00,62.7,61.2,30.03,NNW,328,0.0,3.0,95,0.00,,,0.02,Wunderground v.1.15,2013-07-25 23:36:00,
2013-07-25 19:37:00,62.7,61.2,30.03,NNW,348,2.0,3.0,95,0.00,,,0.02,Wunderground v.1.15,2013-07-25 23:37:00,
2013-07-25 19:39:00,62.6,61.1,30.03,NNE,32,0.0,3.0,95,0.00,,,0.02,Wunderground v.1.15,2013-07-25 23:39:00,
2013-07-25 19:40:00,62.6,61.1,30.03,North,356,3.0,3.0,95,0.00,,,0.02,Wunderground v.1.15,2013-07-25 23:40:00,
2013-07-25 19:41:00,62.6,61.1,30.03,NNW,332,2.0,3.0,95,0.00,,,0.02,Wunderground v.1.15,2013-07-25 23:41:00,
2013-07-25 19:42:00,62.6,61.1,30.03,NNW,337,1.0,3.0,95,0.00,,,0.02,Wunderground v.1.15,2013-07-25 23:42:00,
2013-07-25 19:43:00,62.6,61.1,30.03,NNW,327,1.0,3.0,95,0.00,,,0.02,Wunderground v.1.15,2013-07-25 23:43:00,
2013-07-25 19:44:00,62.6,61.1,30.03,North,11,2.0,3.0,95,0.00,,,0.02,Wunderground v.1.15,2013-07-25 23:44:00,
2013-07-25 19:46:00,62.6,61.1,30.03,North,350,1.0,3.0,95,0.00,,,0.02,Wunderground v.1.15,2013-07-25 23:46:00,
2013-07-25 19:47:00,62.6,61.1,30.03,North,352,0.0,3.0,95,0.00,,,0.02,Wunderground v.1.15,2013-07-25 23:47:00,
2013-07-25 19:48:00,62.6,61.1,30.03,NE,50,1.0,3.0,95,0.00,,,0.03,Wunderground v.1.15,2013-07-25 23:48:00,
2013-07-25 19:50:00,62.6,61.1,30.04,North,349,0.0,1.0,95,0.00,,,0.03,Wunderground v.1.15,2013-07-25 23:50:00,
2013-07-25 19:51:00,62.6,61.1,30.03,North,11,1.0,2.0,95,0.00,,,0.03,Wunderground v.1.15,2013-07-25 23:51:00,
2013-07-25 19:52:00,62.6,61.1,30.03,North,354,1.0,2.0,95,0.00,,,0.03,Wunderground v.1.15,2013-07-25 23:52:00,
2013-07-25 19:53:00,62.5,61.0,30.03,South,187,1.0,2.0,95,0.00,,,0.03,Wunderground v.1.15,2013-07-25 23:53:00,
2013-07-25 19:56:00,62.5,61.0,30.03,North,351,0.0,2.0,95,0.00,,,0.03,Wunderground v.1.15,2013-07-25 23:56:00,
2013-07-25 19:57:00,62.5,61.0,30.03,NNW,335,0.0,2.0,95,0.00,,,0.03,Wunderground v.1.15,2013-07-25 23:57:00,
2013-07-25 19:58:00,62.5,61.0,30.03,NNW,341,1.0,3.0,95,0.00,,,0.03,Wunderground v.1.15,2013-07-25 23:58:00,
2013-07-25 20:01:00,62.5,61.0,30.03,North,8,0.0,3.0,95,0.00,,,0.03,Wunderground v.1.15,2013-07-26 00:01:00,
2013-07-25 20:02:00,62.4,60.9,30.03,NNE,20,1.0,3.0,95,0.00,,,0.03,Wunderground v.1.15,2013-07-26 00:02:00,
2013-07-25 20:03:00,62.5,61.0,30.03,NNE,26,1.0,3.0,95,0.00,,,0.03,Wunderground v.1.15,2013-07-26 00:03:00,
2013-07-25 20:06:00,62.5,61.0,30.03,North,352,1.0,3.0,95,0.00,,,0.03,Wunderground v.1.15,2013-07-26 00:06:00,
2013-07-25 20:07:00,62.4,60.9,30.03,North,6,1.0,3.0,95,0.00,,,0.03,Wunderground v.1.15,2013-07-26 00:07:00,
2013-07-25 20:08:00,62.5,61.0,30.03,NNE,16,1.0,3.0,95,0.00,,,0.03,Wunderground v.1.15,2013-07-26 00:08:00,
2013-07-25 20:12:00,62.4,60.9,30.03,NNE,26,1.0,3.0,95,0.00,,,0.03,Wunderground v.1.15,2013-07-26 00:12:00,
2013-07-25 20:14:00,62.4,60.9,30.03,NNE,19,1.0,4.0,95,0.00,,,0.03,Wunderground v.1.15,2013-07-26 00:14:00,
2013-07-25 20:17:00,62.4,60.9,30.03,NNE,19,0.0,4.0,95,0.00,,,0.03,Wunderground v.1.15,2013-07-26 00:17:00,
2013-07-25 20:19:00,62.4,60.9,30.03,NNW,347,2.0,4.0,95,0.00,,,0.03,Wunderground v.1.15,2013-07-26 00:19:00,
2013-07-25 20:22:00,62.4,60.9,30.03,NNW,341,0.0,2.0,95,0.00,,,0.03,Wunderground v.1.15,2013-07-26 00:22:00,
2013-07-25 20:23:00,62.4,60.9,30.03,NNE,13,1.0,2.0,95,0.00,,,0.03,Wunderground v.1.15,2013-07-26 00:23:00,
2013-07-25 20:24:00,62.4,60.9,30.03,North,350,0.0,3.0,95,0.00,,,0.03,Wunderground v.1.15,2013-07-26 00:24:00,
2013-07-25 20:27:00,62.4,60.9,30.03,NNW,330,1.0,3.0,95,0.00,,,0.03,Wunderground v.1.15,2013-07-26 00:27:00,
2013-07-25 20:28:00,62.4,60.9,30.03,North,5,1.0,3.0,95,0.00,,,0.03,Wunderground v.1.15,2013-07-26 00:28:00,
2013-07-25 20:29:00,62.4,60.9,30.03,NNE,23,0.0,3.0,95,0.00,,,0.03,Wunderground v.1.15,2013-07-26 00:29:00,
2013-07-25 20:32:00,62.4,60.9,30.03,NNE,31,0.0,2.0,95,0.00,,,0.03,Wunderground v.1.15,2013-07-26 00:32:00,
2013-07-25 20:33:00,62.4,60.9,30.03,NNE,23,1.0,2.0,95,0.00,,,0.03,Wunderground v.1.15,2013-07-26 00:33:00,
2013-07-25 20:34:00,62.4,60.9,30.03,North,354,1.0,2.0,95,0.00,,,0.03,Wunderground v.1.15,2013-07-26 00:34:00,
2013-07-25 20:37:00,62.4,60.9,30.03,NNW,344,1.0,3.0,95,0.00,,,0.03,Wunderground v.1.15,2013-07-26 00:37:00,
2013-07-25 20:38:00,62.4,60.9,30.03,NE,54,2.0,3.0,95,0.00,,,0.03,Wunderground v.1.15,2013-07-26 00:38:00,
2013-07-25 20:39:00,62.4,60.9,30.03,North,9,1.0,3.0,95,0.00,,,0.03,Wunderground v.1.15,2013-07-26 00:39:00,
2013-07-25 20:42:00,62.4,60.9,30.03,NW,312,1.0,2.0,95,0.00,,,0.03,Wunderground v.1.15,2013-07-26 00:42:00,
2013-07-25 20:43:00,62.4,60.9,30.03,North,7,2.0,2.0,95,0.00,,,0.03,Wunderground v.1.15,2013-07-26 00:43:00,
2013-07-25 20:45:00,62.4,60.9,30.02,North,4,0.0,3.0,95,0.00,,,0.03,Wunderground v.1.15,2013-07-26 00:45:00,
2013-07-25 20:47:00,62.4,60.9,30.03,NNW,331,0.0,3.0,95,0.00,,,0.04,Wunderground v.1.15,2013-07-26 00:47:00,
2013-07-25 20:48:00,62.4,60.9,30.03,NNW,345,2.0,3.0,95,0.00,,,0.04,Wunderground v.1.15,2013-07-26 00:48:00,
2013-07-25 20:50:00,62.4,60.9,30.03,NE,44,2.0,3.0,95,0.00,,,0.04,Wunderground v.1.15,2013-07-26 00:50:00,
2013-07-25 20:52:00,62.3,60.8,30.02,NW,307,1.0,3.0,95,0.00,,,0.04,Wunderground v.1.15,2013-07-26 00:52:00,
2013-07-25 20:53:00,62.4,60.9,30.02,NW,308,0.0,3.0,95,0.00,,,0.04,Wunderground v.1.15,2013-07-26 00:53:00,
2013-07-25 20:54:00,62.4,60.9,30.02,NNW,335,1.0,3.0,95,0.00,,,0.04,Wunderground v.1.15,2013-07-26 00:54:00,
2013-07-25 20:55:00,62.3,60.8,30.02,NNW,337,1.0,3.0,95,0.00,,,0.04,Wunderground v.1.15,2013-07-26 00:55:00,
2013-07-25 20:58:00,62.3,60.8,30.02,NW,326,2.0,4.0,95,0.00,,,0.04,Wunderground v.1.15,2013-07-26 00:58:00,
2013-07-25 20:59:00,62.3,60.8,30.02,NE,34,1.0,4.0,95,0.00,,,0.04,Wunderground v.1.15,2013-07-26 00:59:00,
2013-07-25 21:00:00,62.3,60.8,30.02,NNE,32,2.0,3.0,95,0.00,,,0.04,Wunderground v.1.15,2013-07-26 01:00:00,
2013-07-25 21:03:00,62.3,60.8,30.02,North,1,1.0,3.0,95,0.00,,,0.04,Wunderground v.1.15,2013-07-26 01:03:00,
2013-07-25 21:04:00,62.3,60.8,30.02,NNW,346,0.0,3.0,95,0.00,,,0.04,Wunderground v.1.15,2013-07-26 01:04:00,
2013-07-25 21:05:00,62.3,61.1,30.02,NNW,344,1.0,3.0,96,0.00,,,0.04,Wunderground v.1.15,2013-07-26 01:05:00,
2013-07-25 21:08:00,62.3,61.1,30.02,NE,37,3.0,3.0,96,0.00,,,0.04,Wunderground v.1.15,2013-07-26 01:08:00,
2013-07-25 21:09:00,62.3,61.1,30.02,NE,56,2.0,3.0,96,0.00,,,0.04,Wunderground v.1.15,2013-07-26 01:09:00,
2013-07-25 21:10:00,62.3,61.1,30.02,NNW,328,1.0,4.0,96,0.00,,,0.04,Wunderground v.1.15,2013-07-26 01:10:00,
2013-07-25 21:13:00,62.3,61.1,30.02,NNE,29,1.0,4.0,96,0.00,,,0.04,Wunderground v.1.15,2013-07-26 01:13:00,
2013-07-25 21:14:00,62.3,61.1,30.02,NNE,26,0.0,4.0,96,0.00,,,0.04,Wunderground v.1.15,2013-07-26 01:14:00,
2013-07-25 21:15:00,62.3,61.1,30.02,NE,34,2.0,4.0,96,0.00,,,0.04,Wunderground v.1.15,2013-07-26 01:15:00,
2013-07-25 21:19:00,62.3,61.1,30.02,North,8,3.0,4.0,96,0.00,,,0.04,Wunderground v.1.15,2013-07-26 01:19:00,
2013-07-25 21:20:00,62.3,61.1,30.02,North,9,2.0,3.0,96,0.00,,,0.04,Wunderground v.1.15,2013-07-26 01:20:00,
2013-07-25 21:21:00,62.3,61.1,30.02,NNW,341,2.0,3.0,96,0.00,,,0.04,Wunderground v.1.15,2013-07-26 01:21:00,
2013-07-25 21:24:00,62.3,61.1,30.02,North,11,2.0,3.0,96,0.00,,,0.04,Wunderground v.1.15,2013-07-26 01:24:00,
2013-07-25 21:25:00,62.3,61.1,30.02,NNW,342,1.0,3.0,96,0.00,,,0.04,Wunderground v.1.15,2013-07-26 01:25:00,
2013-07-25 21:26:00,62.3,61.1,30.02,NNW,345,2.0,3.0,96,0.00,,,0.04,Wunderground v.1.15,2013-07-26 01:26:00,
2013-07-25 21:29:00,62.3,61.1,30.02,NNE,23,1.0,3.0,96,0.00,,,0.04,Wunderground v.1.15,2013-07-26 01:29:00,
2013-07-25 21:30:00,62.3,61.1,30.02,NE,34,2.0,2.0,96,0.00,,,0.04,Wunderground v.1.15,2013-07-26 01:30:00,
2013-07-25 21:31:00,62.3,61.1,30.02,NNW,342,1.0,3.0,96,0.00,,,0.04,Wunderground v.1.15,2013-07-26 01:31:00,
2013-07-25 21:32:00,62.3,61.1,30.02,NNE,13,2.0,3.0,96,0.00,,,0.04,Wunderground v.1.15,2013-07-26 01:32:00,
2013-07-25 21:34:00,62.4,61.2,30.02,NNE,15,4.0,4.0,96,0.00,,,0.04,Wunderground v.1.15,2013-07-26 01:34:00,
2013-07-25 21:35:00,62.4,61.2,30.02,NNW,340,2.0,4.0,96,0.00,,,0.04,Wunderground v.1.15,2013-07-26 01:35:00,
2013-07-25 21:36:00,62.4,61.2,30.02,NW,315,2.0,4.0,96,0.00,,,0.04,Wunderground v.1.15,2013-07-26 01:36:00,
2013-07-25 21:37:00,62.4,61.2,30.02,North,356,1.0,4.0,96,0.00,,,0.04,Wunderground v.1.15,2013-07-26 01:37:00,
2013-07-25 21:39:00,62.4,61.2,30.02,North,6,3.0,4.0,96,0.00,,,0.04,Wunderground v.1.15,2013-07-26 01:39:00,
2013-07-25 21:40:00,62.4,61.2,30.02,NNE,29,2.0,2.0,96,0.00,,,0.04,Wunderground v.1.15,2013-07-26 01:40:00,
2013-07-25 21:41:00,62.4,61.2,30.02,NW,323,2.0,2.0,96,0.00,,,0.04,Wunderground v.1.15,2013-07-26 01:41:00,
2013-07-25 21:42:00,62.4,61.2,30.02,NNE,23,1.0,2.0,96,0.00,,,0.04,Wunderground v.1.15,2013-07-26 01:42:00,
2013-07-25 21:44:00,62.4,61.2,30.02,WNW,301,2.0,3.0,96,0.00,,,0.04,Wunderground v.1.15,2013-07-26 01:44:00,
2013-07-25 21:45:00,62.4,61.2,30.02,NNW,337,1.0,3.0,96,0.00,,,0.04,Wunderground v.1.15,2013-07-26 01:45:00,
2013-07-25 21:47:00,62.4,61.2,30.02,NNE,23,0.0,3.0,96,0.00,,,0.04,Wunderground v.1.15,2013-07-26 01:47:00,
2013-07-25 21:49:00,62.4,61.2,30.02,North,358,0.0,3.0,96,0.00,,,0.05,Wunderground v.1.15,2013-07-26 01:49:00,
2013-07-25 21:50:00,62.4,61.2,30.02,NNE,26,2.0,2.0,96,0.00,,,0.05,Wunderground v.1.15,2013-07-26 01:50:00,
2013-07-25 21:51:00,62.5,61.3,30.02,NNW,330,1.0,2.0,96,0.00,,,0.05,Wunderground v.1.15,2013-07-26 01:51:00,
2013-07-25 21:52:00,62.5,61.3,30.02,North,356,0.0,3.0,96,0.00,,,0.05,Wunderground v.1.15,2013-07-26 01:52:00,
2013-07-25 21:54:00,62.5,61.3,30.02,North,358,3.0,3.0,96,0.00,,,0.05,Wunderground v.1.15,2013-07-26 01:54:00,
2013-07-25 21:55:00,62.5,61.3,30.02,NNE,18,3.0,3.0,96,0.00,,,0.05,Wunderground v.1.15,2013-07-26 01:55:00,
2013-07-25 21:56:00,62.5,61.3,30.02,NE,37,2.0,4.0,96,0.00,,,0.05,Wunderground v.1.15,2013-07-26 01:56:00,
2013-07-25 21:57:00,62.5,61.3,30.02,NNW,328,3.0,4.0,96,0.00,,,0.05,Wunderground v.1.15,2013-07-26 01:57:00,
2013-07-25 22:00:00,62.5,61.3,30.02,NNE,16,3.0,3.0,96,0.00,,,0.05,Wunderground v.1.15,2013-07-26 02:00:00,
2013-07-25 22:01:00,62.5,61.3,30.02,NE,34,4.0,4.0,96,0.00,,,0.05,Wunderground v.1.15,2013-07-26 02:01:00,
2013-07-25 22:02:00,62.5,61.3,30.02,NNE,20,0.0,4.0,96,0.00,,,0.05,Wunderground v.1.15,2013-07-26 02:02:00,
2013-07-25 22:05:00,62.5,61.3,30.02,NNE,19,1.0,4.0,96,0.00,,,0.05,Wunderground v.1.15,2013-07-26 02:05:00,
2013-07-25 22:06:00,62.5,61.3,30.02,NNW,348,2.0,4.0,96,0.00,,,0.05,Wunderground v.1.15,2013-07-26 02:06:00,
2013-07-25 22:07:00,62.5,61.3,30.01,ENE,71,2.0,5.0,96,0.00,,,0.05,Wunderground v.1.15,2013-07-26 02:07:00,
2013-07-25 22:08:00,62.6,61.4,30.01,ENE,58,2.0,5.0,96,0.00,,,0.05,Wunderground v.1.15,2013-07-26 02:08:00,
2013-07-25 22:10:00,62.6,61.4,30.02,ENE,63,3.0,4.0,96,0.00,,,0.05,Wunderground v.1.15,2013-07-26 02:10:00,
2013-07-25 22:11:00,62.6,61.4,30.02,NNW,335,2.0,4.0,96,0.00,,,0.05,Wunderground v.1.15,2013-07-26 02:11:00,
2013-07-25 22:12:00,62.6,61.4,30.01,NNE,25,2.0,4.0,96,0.00,,,0.05,Wunderground v.1.15,2013-07-26 02:12:00,
2013-07-25 22:13:00,62.6,61.4,30.02,NNW,341,2.0,4.0,96,0.00,,,0.05,Wunderground v.1.15,2013-07-26 02:13:00,
2013-07-25 22:15:00,62.7,61.5,30.02,NNW,333,2.0,6.0,96,0.00,,,0.05,Wunderground v.1.15,2013-07-26 02:15:00,
2013-07-25 22:16:00,62.7,61.5,30.02,North,351,2.0,6.0,96,0.00,,,0.05,Wunderground v.1.15,2013-07-26 02:16:00,
2013-07-25 22:17:00,62.7,61.2,30.01,NE,40,1.0,6.0,95,0.00,,,0.05,Wunderground v.1.15,2013-07-26 02:17:00,
2013-07-25 22:18:00,62.7,61.2,30.01,ENE,68,2.0,6.0,95,0.00,,,0.05,Wunderground v.1.15,2013-07-26 02:18:00,
2013-07-25 22:20:00,62.8,61.3,30.02,NNE,23,1.0,2.0,95,0.00,,,0.05,Wunderground v.1.15,2013-07-26 02:20:00,
2013-07-25 22:21:00,62.8,61.3,30.02,NNW,339,2.0,3.0,95,0.00,,,0.05,Wunderground v.1.15,2013-07-26 02:21:00,
2013-07-25 22:22:00,62.8,61.3,30.02,NW,308,2.0,4.0,95,0.00,,,0.05,Wunderground v.1.15,2013-07-26 02:22:00,
2013-07-25 22:23:00,62.8,61.3,30.02,NNW,345,1.0,4.0,95,0.00,,,0.05,Wunderground v.1.15,2013-07-26 02:23:00,
2013-07-25 22:25:00,62.8,61.3,30.02,NNE,29,1.0,4.0,95,0.00,,,0.05,Wunderground v.1.15,2013-07-26 02:25:00,
2013-07-25 22:26:00,62.9,61.4,30.01,NNW,343,1.0,4.0,95,0.00,,,0.05,Wunderground v.1.15,2013-07-26 02:26:00,
2013-07-25 22:28:00,62.9,61.4,30.01,North,354,0.0,4.0,95,0.00,,,0.05,Wunderground v.1.15,2013-07-26 02:28:00,
2013-07-25 22:30:00,63.0,61.5,30.01,North,356,3.0,3.0,95,0.00,,,0.05,Wunderground v.1.15,2013-07-26 02:30:00,
2013-07-25 22:31:00,63.0,61.5,30.01,NE,39,2.0,3.0,95,0.00,,,0.05,Wunderground v.1.15,2013-07-26 02:31:00,
2013-07-25 22:33:00,63.0,61.5,30.01,NE,39,4.0,4.0,95,0.00,,,0.05,Wunderground v.1.15,2013-07-26 02:33:00,
2013-07-25 22:35:00,63.0,61.5,30.01,NNW,338,2.0,4.0,95,0.00,,,0.05,Wunderground v.1.15,2013-07-26 02:35:00,
2013-07-25 22:37:00,63.0,61.5,30.01,NE,56,2.0,5.0,95,0.00,,,0.05,Wunderground v.1.15,2013-07-26 02:37:00,
2013-07-25 22:38:00,63.1,61.6,30.01,NNE,27,2.0,5.0,95,0.00,,,0.05,Wunderground v.1.15,2013-07-26 02:38:00,
2013-07-25 22:39:00,63.1,61.6,30.01,NNW,342,2.0,5.0,95,0.00,,,0.05,Wunderground v.1.15,2013-07-26 02:39:00,
2013-07-25 22:40:00,63.2,61.7,30.01,NNE,20,1.0,3.0,95,0.00,,,0.05,Wunderground v.1.15,2013-07-26 02:40:00,
2013-07-25 22:42:00,63.2,61.7,30.01,NNW,338,1.0,3.0,95,0.00,,,0.05,Wunderground v.1.15,2013-07-26 02:42:00,
2013-07-25 22:43:00,63.2,61.7,30.01,North,11,2.0,3.0,95,0.00,,,0.05,Wunderground v.1.15,2013-07-26 02:43:00,
2013-07-25 22:44:00,63.2,61.7,30.01,North,352,2.0,3.0,95,0.00,,,0.05,Wunderground v.1.15,2013-07-26 02:44:00,
2013-07-25 22:45:00,63.3,61.8,30.01,North,8,3.0,5.0,95,0.00,,,0.05,Wunderground v.1.15,2013-07-26 02:45:00,
2013-07-25 22:47:00,63.3,61.8,30.01,WNW,291,2.0,5.0,95,0.00,,,0.05,Wunderground v.1.15,2013-07-26 02:47:00,
2013-07-25 22:48:00,63.3,61.8,30.01,NNW,338,2.0,5.0,95,0.00,,,0.05,Wunderground v.1.15,2013-07-26 02:48:00,
2013-07-25 22:50:00,63.4,61.9,30.01,NW,323,1.0,4.0,95,0.00,,,0.05,Wunderground v.1.15,2013-07-26 02:50:00,
2013-07-25 22:51:00,63.4,61.9,30.01,NNW,337,2.0,4.0,95,0.00,,,0.05,Wunderground v.1.15,2013-07-26 02:51:00,
2013-07-25 22:52:00,63.4,61.9,30.01,NNE,18,2.0,4.0,95,0.00,,,0.05,Wunderground v.1.15,2013-07-26 02:52:00,
2013-07-25 22:53:00,63.4,61.9,30.01,NNW,336,2.0,5.0,95,0.00,,,0.05,Wunderground v.1.15,2013-07-26 02:53:00,
2013-07-25 22:55:00,63.5,62.0,30.01,NNW,337,1.0,5.0,95,0.00,,,0.05,Wunderground v.1.15,2013-07-26 02:55:00,
2013-07-25 22:57:00,63.5,62.0,30.00,North,349,2.0,5.0,95,0.00,,,0.05,Wunderground v.1.15,2013-07-26 02:57:00,
2013-07-25 22:58:00,63.5,62.0,30.00,NE,41,2.0,5.0,95,0.00,,,0.05,Wunderground v.1.15,2013-07-26 02:58:00,
2013-07-25 23:00:00,63.5,62.0,30.00,NE,46,0.0,3.0,95,0.00,,,0.05,Wunderground v.1.15,2013-07-26 03:00:00,
2013-07-25 23:02:00,63.5,62.0,30.00,North,356,2.0,4.0,95,0.00,,,0.05,Wunderground v.1.15,2013-07-26 03:02:00,
2013-07-25 23:03:00,63.6,62.1,30.00,NNW,335,1.0,4.0,95,0.00,,,0.05,Wunderground v.1.15,2013-07-26 03:03:00,
2013-07-25 23:04:00,63.6,62.1,30.00,North,352,2.0,4.0,95,0.00,,,0.05,Wunderground v.1.15,2013-07-26 03:04:00,
2013-07-25 23:06:00,63.6,62.1,30.00,North,349,3.0,4.0,95,0.00,,,0.05,Wunderground v.1.15,2013-07-26 03:06:00,
2013-07-25 23:07:00,63.7,62.2,30.00,NNW,331,1.0,5.0,95,0.00,,,0.05,Wunderground v.1.15,2013-07-26 03:07:00,
2013-07-25 23:09:00,63.7,62.2,30.00,NW,323,3.0,5.0,95,0.00,,,0.05,Wunderground v.1.15,2013-07-26 03:09:00,
2013-07-25 23:11:00,63.7,62.2,30.00,NNW,340,1.0,6.0,95,0.00,,,0.05,Wunderground v.1.15,2013-07-26 03:11:00,
2013-07-25 23:12:00,63.7,62.2,30.00,SE,139,1.0,6.0,95,0.00,,,0.05,Wunderground v.1.15,2013-07-26 03:12:00,
2013-07-25 23:13:00,63.7,62.2,30.00,North,354,2.0,6.0,95,0.00,,,0.05,Wunderground v.1.15,2013-07-26 03:13:00,
2013-07-25 23:14:00,63.7,62.2,30.00,NNE,31,1.0,6.0,95,0.00,,,0.05,Wunderground v.1.15,2013-07-26 03:14:00,
2013-07-25 23:16:00,63.8,62.3,30.00,NNE,16,2.0,6.0,95,0.00,,,0.05,Wunderground v.1.15,2013-07-26 03:16:00,
2013-07-25 23:17:00,63.8,62.3,30.00,NNE,13,1.0,6.0,95,0.00,,,0.05,Wunderground v.1.15,2013-07-26 03:17:00,
2013-07-25 23:18:00,63.8,62.3,30.01,ENE,71,1.0,6.0,95,0.00,,,0.05,Wunderground v.1.15,2013-07-26 03:18:00,
2013-07-25 23:19:00,63.8,62.3,30.01,NE,46,0.0,6.0,95,0.00,,,0.05,Wunderground v.1.15,2013-07-26 03:19:00,
2013-07-25 23:22:00,63.7,62.2,30.01,NNW,331,2.0,2.0,95,0.00,,,0.06,Wunderground v.1.15,2013-07-26 03:22:00,
2013-07-25 23:23:00,63.7,62.2,30.00,NNW,347,2.0,3.0,95,0.00,,,0.06,Wunderground v.1.15,2013-07-26 03:23:00,
2013-07-25 23:24:00,63.7,62.2,30.00,NW,305,2.0,3.0,95,0.00,,,0.06,Wunderground v.1.15,2013-07-26 03:24:00,
2013-07-25 23:27:00,63.7,62.2,30.00,NE,44,2.0,4.0,95,0.10,,,0.07,Wunderground v.1.15,2013-07-26 03:27:00,
2013-07-25 23:28:00,63.6,62.1,30.00,West,281,1.0,4.0,95,0.10,,,0.07,Wunderground v.1.15,2013-07-26 03:28:00,
2013-07-25 23:29:00,63.6,62.1,30.00,NW,326,1.0,4.0,95,0.10,,,0.07,Wunderground v.1.15,2013-07-26 03:29:00,
2013-07-25 23:32:00,63.6,62.4,30.00,NNE,26,2.0,4.0,96,0.11,,,0.07,Wunderground v.1.15,2013-07-26 03:32:00,
2013-07-25 23:33:00,63.5,62.3,30.00,ENE,75,2.0,4.0,96,0.11,,,0.08,Wunderground v.1.15,2013-07-26 03:33:00,
2013-07-25 23:34:00,63.5,62.3,30.00,North,356,1.0,4.0,96,0.11,,,0.08,Wunderground v.1.15,2013-07-26 03:34:00,
2013-07-25 23:35:00,63.5,62.3,30.00,NE,41,3.0,4.0,96,0.11,,,0.08,Wunderground v.1.15,2013-07-26 03:35:00,
2013-07-25 23:37:00,63.5,62.3,30.00,NW,326,1.0,4.0,96,0.11,,,0.08,Wunderground v.1.15,2013-07-26 03:37:00,
2013-07-25 23:38:00,63.5,62.3,29.99,NNW,343,2.0,4.0,96,0.11,,,0.09,Wunderground v.1.15,2013-07-26 03:38:00,
2013-07-25 23:39:00,63.5,62.3,29.99,North,1,0.0,4.0,96,0.11,,,0.09,Wunderground v.1.15,2013-07-26 03:39:00,
2013-07-25 23:40:00,63.5,62.3,29.99,NNW,339,2.0,3.0,96,0.11,,,0.09,Wunderground v.1.15,2013-07-26 03:40:00,
2013-07-25 23:42:00,63.4,62.2,29.99,NE,49,2.0,3.0,96,0.11,,,0.09,Wunderground v.1.15,2013-07-26 03:42:00,
2013-07-25 23:43:00,63.4,62.2,29.99,East,94,2.0,3.0,96,0.10,,,0.09,Wunderground v.1.15,2013-07-26 03:43:00,
2013-07-25 23:44:00,63.4,62.2,30.00,NNW,339,1.0,3.0,96,0.08,,,0.09,Wunderground v.1.15,2013-07-26 03:44:00,
2013-07-25 23:45:00,63.4,62.2,30.00,NNW,331,1.0,3.0,96,0.07,,,0.09,Wunderground v.1.15,2013-07-26 03:45:00,
2013-07-25 23:48:00,63.4,62.2,30.00,NE,37,1.0,5.0,96,0.07,,,0.10,Wunderground v.1.15,2013-07-26 03:48:00,
2013-07-25 23:49:00,63.4,62.2,30.00,NNE,19,2.0,5.0,96,0.07,,,0.10,Wunderground v.1.15,2013-07-26 03:49:00,
2013-07-25 23:50:00,63.4,62.2,30.00,NNE,26,2.0,2.0,96,0.07,,,0.10,Wunderground v.1.15,2013-07-26 03:50:00,
2013-07-25 23:53:00,63.4,62.5,30.00,North,11,1.0,3.0,97,0.07,,,0.10,Wunderground v.1.15,2013-07-26 03:53:00,
2013-07-25 23:54:00,63.4,62.5,30.00,North,352,1.0,3.0,97,0.08,,,0.10,Wunderground v.1.15,2013-07-26 03:54:00,
2013-07-25 23:55:00,63.4,62.5,30.00,North,9,2.0,3.0,97,0.08,,,0.11,Wunderground v.1.15,2013-07-26 03:55:00,
2013-07-25 23:58:00,63.4,62.5,30.00,NNE,26,0.0,4.0,97,0.08,,,0.11,Wunderground v.1.15,2013-07-26 03:58:00,
2013-07-25 23:59:00,63.4,62.5,30.00,NNE,13,1.0,4.0,97,0.08,,,0.11,Wunderground v.1.15,2013-07-26 03:59:00,